Location: Dittelbrunn
(50.0738°N, 10.2196°E)
Time: 12:36:22
(UTC+00:00)

Cosmos 2263 Rocket - Pass Details

Date: 18 September 2020
Orbit: 822 x 849 km, 71.0° (Epoch: 23 October)

Event Time Altitude Azimuth Distance (km) Brightness Sun altitude
Rises 17:48:26 0° 189° (S) 3,344 5.3 -4.5°
Reaches altitude 10° 17:50:54 10° 184° (S) 2,417 4.6 -4.9°
Maximum altitude 17:56:13 50° 111° (ESE) 1,050 2.4 -5.8°
Drops below altitude 10° 18:01:36 10° 37° (NE) 2,446 4.4 -6.6°
Sets 18:04:06 0° 33° (NNE) 3,388 5.1 -7.0°
